Tracking 30402 objects as of 13-May-2025
HD Live streaming from Space Station
objects crossing your sky now

ARIANE 5 DEB (SYLDA)

Track ARIANE 5 DEB (SYLDA) now!


NORAD ID: 27952
Int'l Code: 2003-043F
Perigee: 675.2 km
Apogee: 35,593.3 km
Inclination: 7.4 °
Period: 636.3 minutes
Semi major axis: 24505 km
RCS: 17.0078 m2 (large)
Launch date: September 27, 2003
Source: France (FR)
Launch site: FRENCH GUIANA (FRGUI)

Note: This is SATELLITE DEBRIS
Your satellite tracking list
Your tracking list is empty




NASA's NSSDC Master Catalog

Two Line Element Set (TLE):
1 27952U 03043F   25132.67725903 -.00000152  00000-0 -23786-2 0  9995
2 27952   7.3596  91.8173 7124632 228.9611  43.2329  2.26315802178446
Source of the keplerian elements: AFSPC